1498726801.2,33113,18.69,72886.8,5.51,3.89,3.97,0,*70
1498726802.4,33114,18.63,72900.3,5.51,4.15,4.11,0,*7C
1498726803.58,33115,18.69,72912.0,5.53,4.37,4.37,0,*7B
1498726804.8,33116,18.69,72918.5,5.53,4.59,4.59,0,*78
1498726805.98,33117,18.63,72906.3,5.53,4.37,4.37,0,*79
1498726807.23,33118,18.63,72912.0,5.57,4.63,4.79,0,*79
1498726808.48,33119,18.63,72916.8,5.57,4.79,4.79,0,*73
1498726809.66,33120,18.63,72918.0,5.59,4.89,4.85,0,*7B
1498726810.84,33121,18.63,72926.3,5.59,4.89,4.89,0,*76
1498726812.09,33122,18.63,72920.8,5.57,4.63,4.63,0,*7B
1498726813.34,33123,18.63,72912.8,5.61,5.05,5.05,0,*7F
1498726814.55,33124,18.63,72904.3,5.61,5.27,5.29,0,*76
1498726815.77,33125,18.63,72908.3,5.63,5.27,5.27,0,*7B
1498726816.93,33126,18.63,72894.8,5.63,5.29,5.41,0,*76
1498726818.1,33127,18.69,72890.0,5.63,5.37,5.41,0,*78
1498726819.28,33128,18.69,72894.5,5.67,5.11,5.19,0,*7A
1498726820.51,33129,18.63,72890.8,5.69,5.05,5.11,0,*78
1498726821.76,33130,18.63,72896.0,5.69,4.97,5.01,0,*7B
1498726822.99,33131,18.63,72890.0,5.73,5.05,5.15,0,*7E
1498726824.18,33132,18.63,72898.5,5.73,5.15,5.15,0,*7C
1498726825.44,33133,18.63,72866.5,5.73,5.01,5.01,0,*7D
1498726826.64,33134,18.63,72872.3,5.73,4.89,4.89,0,*7A
1498726827.8,33135,18.69,72894.3,5.75,4.81,4.89,0,*75
1498726829.03,33136,18.69,72896.8,5.75,5.05,5.05,0,*7E
1498726830.26,33137,18.69,72896.3,5.73,5.05,5.07,0,*7B
1498726831.51,33138,18.63,72892.3,5.77,4.97,4.97,0,*72
1498726832.71,33139,18.63,72898.8,5.75,4.57,4.59,0,*7F
1498726833.87,33140,18.63,72906.0,5.75,4.19,4.19,0,*7F
1498726835.05,33141,18.63,72916.3,5.75,4.07,4.11,0,*79
1498726836.22,33142,18.69,72924.0,5.75,4.11,4.23,0,*7C
1498726837.42,33143,18.63,72906.5,5.73,4.33,4.33,0,*7A
1498726838.62,33144,18.63,72916.0,5.73,4.37,4.49,0,*74
1498726839.8,33145,18.69,72912.0,5.75,4.37,4.37,0,*7A
1498726840.98,33146,18.63,72914.3,5.75,4.33,4.37,0,*7D
1498726842.21,33147,18.63,72914.3,5.75,4.67,4.71,0,*7F
1498726843.44,33148,18.63,72904.0,5.75,4.59,4.79,0,*75
1498726844.67,33149,18.63,72910.0,5.75,4.67,4.71,0,*71
1498726845.89,33150,18.63,72898.0,5.77,4.81,4.93,0,*7F
1498726847.09,33151,18.63,72900.0,5.75,4.81,5.01,0,*76
1498726848.34,33152,18.63,72896.3,5.77,4.97,5.05,0,*74
1498726849.59,33153,18.63,72900.3,5.77,4.97,5.05,0,*75
1498726850.84,33154,18.63,72892.0,5.77,4.97,5.05,0,*72
1498726852.09,33155,18.63,72898.0,5.77,4.75,4.93,0,*71
1498726853.3,33156,18.63,72896.5,5.79,5.01,5.07,0,*72
1498726854.48,33157,18.63,72898.5,5.79,5.07,5.11,0,*72
1498726855.65,33158,18.63,72898.5,5.79,4.53,4.53,0,*7A
1498726856.84,33159,18.63,72898.8,5.81,4.27,4.19,0,*71
1498726858.04,33160,18.63,72894.3,5.81,4.57,4.57,0,*76
1498726859.21,33161,18.63,72910.3,5.79,4.45,4.45,0,*70
1498726860.41,33162,18.63,72906.0,5.79,4.57,4.63,0,*74
1498726861.61,33163,18.63,72910.8,5.81,4.45,4.45,0,*75
1498726862.8,33164,18.63,72910.5,5.81,4.45,4.45,0,*72
1498726863.98,33165,18.63,72920.5,5.79,3.85,3.81,0,*70
1498726865.22,33166,18.63,72922.8,5.81,3.97,3.97,0,*70
1498726866.39,33167,18.63,72922.0,5.79,4.41,4.41,0,*76
1498726867.62,33168,18.63,72926.5,5.79,4.31,4.31,0,*79
1498726868.85,33169,18.63,72930.5,5.79,4.31,4.31,0,*78
1498726870.05,33170,18.63,72930.0,5.79,4.33,4.31,0,*72
1498726871.25,33171,18.63,72930.8,5.79,4.27,4.31,0,*76
1498726872.43,33172,18.63,72934.8,5.79,4.07,4.07,0,*72
1498726873.63,33173,18.63,72940.5,5.79,3.97,3.93,0,*77
1498726874.88,33174,18.63,72932.3,5.77,3.71,3.71,0,*7A
1498726876.12,33175,18.63,72926.0,5.77,3.53,3.45,0,*7C
1498726877.29,33176,18.63,72934.8,5.75,3.55,3.55,0,*7A
1498726878.46,33177,18.63,72938.3,5.75,4.11,4.19,0,*73
1498726879.67,33178,18.63,72940.0,5.75,4.01,4.01,0,*74
1498726880.89,33179,18.63,72932.8,5.75,3.97,3.97,0,*75
1498726882.09,33180,18.63,72946.5,5.75,4.01,4.07,0,*75
1498726883.33,33181,18.63,72946.5,5.73,3.53,3.53,0,*74
1498726884.54,33182,18.63,72950.0,5.73,3.55,3.53,0,*71
1498726885.76,33183,18.63,72932.5,5.71,3.49,3.49,0,*74
1498726886.95,33184,18.63,72932.8,5.71,3.85,3.97,0,*70
1498726888.2,33185,18.63,72928.5,5.73,3.79,3.71,0,*78
1498726889.39,33186,18.63,72938.8,5.73,3.55,3.55,0,*73
1498726890.58,33187,18.63,72944.0,5.69,3.25,3.25,0,*79
1498726891.83,33188,18.63,72942.3,5.69,3.49,3.49,0,*76
1498726893.0,33189,18.63,72920.5,5.67,3.81,3.89,0,*71
1498726894.22,33190,18.63,72916.0,5.67,4.01,4.01,0,*71
1498726895.42,33191,18.63,72920.3,5.69,4.15,4.07,0,*7D
1498726896.59,33192,18.63,72914.5,5.67,4.23,4.23,0,*73
1498726897.81,33193,18.63,72908.8,5.69,3.81,3.97,0,*7B
1498726899.03,33194,18.63,72912.3,5.67,3.79,3.79,0,*75
1498726900.23,33195,18.63,72910.0,5.67,3.55,3.49,0,*79
1498726901.45,33196,18.63,72912.0,5.63,3.41,3.37,0,*72
1498726902.65,33197,18.63,72906.3,5.63,3.79,3.85,0,*71
1498726903.83,33198,18.63,72906.5,5.63,3.89,3.89,0,*7D
1498726905.0,33199,18.63,72918.3,5.63,3.63,3.63,0,*7C
1498726906.24,33200,18.63,72910.0,5.61,3.53,3.53,0,*7D
1498726907.43,33201,18.63,72908.3,5.63,3.53,3.55,0,*78
1498726908.62,33202,18.63,72906.3,5.61,3.89,3.85,0,*73
1498726909.82,33203,18.63,72912.8,5.61,4.11,4.15,0,*7A
1498726911.04,33204,18.63,72924.3,5.63,4.01,4.01,0,*7B
1498726912.24,33205,18.63,72924.0,5.63,3.85,3.75,0,*75
1498726913.45,33206,18.63,72920.0,5.61,3.53,3.55,0,*7D
1498726914.67,33207,18.63,72912.0,5.61,3.63,3.67,0,*7E
1498726915.89,33208,18.63,72908.3,5.61,3.89,3.97,0,*7A
1498726917.13,33209,18.63,72892.8,5.61,3.45,3.53,0,*73
1498726918.33,33210,18.63,72890.0,5.61,4.11,4.11,0,*7C
1498726919.53,33211,18.63,72916.5,5.61,4.07,4.07,0,*7D
1498726920.75,33212,18.63,72920.5,5.59,3.41,3.53,0,*76
1498726921.95,33213,18.63,72934.3,5.59,4.05,4.11,0,*71
1498726923.13,33214,18.63,72932.5,5.59,4.23,4.19,0,*7A
1498726924.32,33215,18.63,72930.5,5.61,4.45,4.45,0,*79
1498726925.52,33216,18.63,72926.3,5.61,4.27,4.33,0,*7F
1498726926.77,33217,18.63,72928.3,5.61,4.67,4.67,0,*7B
1498726927.96,33218,18.63,72926.3,5.61,4.57,4.49,0,*7B
1498726929.15,33219,18.63,72924.5,5.61,4.45,4.49,0,*79
1498726930.34,33220,18.63,72926.5,5.63,4.37,4.37,0,*7D
1498726931.53,33221,18.63,72922.8,5.61,4.27,4.27,0,*7E
1498726932.75,33222,18.63,72922.5,5.63,4.01,4.01,0,*7F
1498726933.92,33223,18.63,72920.8,5.63,4.23,4.15,0,*7B
1498726935.16,33224,18.63,72922.3,5.61,3.97,4.01,0,*73
1498726936.35,33225,18.63,72924.0,5.61,4.45,4.49,0,*76
1498726937.53,33226,18.63,72916.5,5.63,4.37,4.37,0,*7B
1498726938.74,33227,18.63,72912.8,5.61,4.33,4.37,0,*7C
1498726939.91,33228,18.63,72904.3,5.63,4.45,4.45,0,*75
1498726941.08,33229,18.63,72890.8,5.63,4.45,4.45,0,*74
1498726942.3,33230,18.63,72888.0,5.63,4.67,4.67,0,*7C
1498726943.48,33231,18.63,72890.3,5.63,4.27,4.27,0,*7D
1498726944.66,33232,18.63,72890.5,5.63,4.37,4.37,0,*7E
1498726945.83,33233,18.63,72894.3,5.63,4.49,4.57,0,*70
1498726947.06,33234,18.63,72896.5,5.67,4.75,4.75,0,*7C
1498726948.29,33235,18.63,72892.5,5.67,4.71,4.75,0,*79
1498726949.54,33236,18.63,72894.0,5.69,4.79,4.79,0,*70
1498726950.79,33237,18.63,72898.0,5.69,4.63,4.67,0,*75
1498726952.01,33238,18.63,72898.0,5.67,4.59,4.59,0,*70
1498726953.27,33239,18.63,72902.3,5.69,4.59,4.75,0,*71
1498726954.47,33240,18.63,72908.0,5.69,4.53,4.57,0,*75
1498726955.66,33241,18.63,72906.8,5.69,4.57,4.45,0,*73
1498726956.91,33242,18.63,72910.3,5.69,4.75,4.79,0,*7F
1498726958.16,33243,18.63,72910.5,5.69,4.67,4.75,0,*71
1498726959.38,33244,18.63,72914.5,5.69,4.63,4.53,0,*76
1498726960.58,33245,18.63,72914.3,5.69,4.53,4.53,0,*74
1498726961.75,33246,18.63,72912.3,5.71,4.33,4.33,0,*7E
1498726962.93,33247,18.63,72914.3,5.71,4.53,4.53,0,*7F
1498726964.18,33248,18.63,72914.3,5.69,4.63,4.63,0,*79
1498726965.4,33249,18.63,72912.5,5.73,4.71,4.81,0,*7C
1498726966.57,33250,18.63,72912.5,5.71,4.89,4.89,0,*79
1498726967.79,33251,18.63,72912.0,5.71,4.79,4.79,0,*78
1498726968.99,33252,18.63,72908.5,5.71,4.89,4.97,0,*74
1498726970.21,33253,18.63,72906.0,5.73,4.81,4.93,0,*7B
1498726971.44,33254,18.63,72902.3,5.73,4.89,5.01,0,*7E
1498726972.67,33255,18.63,72906.3,5.73,5.01,5.07,0,*78
1498726973.91,33256,18.63,72908.0,5.75,4.93,5.01,0,*71
1498726975.13,33257,18.63,72906.8,5.75,4.93,5.05,0,*74
1498726976.37,33258,18.63,72914.0,5.75,4.93,5.01,0,*7F
1498726977.62,33259,18.63,72914.8,5.77,4.93,4.93,0,*76
1498726978.82,33260,18.63,72914.5,5.75,4.89,4.93,0,*75
1498726980.05,33261,18.63,72914.0,5.75,4.67,4.71,0,*78
1498726981.25,33262,18.63,72910.0,5.75,4.85,4.93,0,*7B
1498726982.45,33263,18.63,72912.5,5.77,5.07,5.11,0,*78
1498726983.67,33264,18.63,72916.3,5.79,5.27,5.27,0,*76
1498726984.88,33265,18.63,72918.8,5.79,5.27,5.27,0,*77
1498726986.07,33266,18.63,72908.5,5.79,5.23,5.23,0,*74
1498726987.3,33267,18.63,72910.5,5.81,5.27,5.27,0,*72
1498726988.48,33268,18.63,72904.3,5.79,5.11,5.15,0,*7E
1498726989.7,33269,18.63,72900.8,5.81,4.89,4.97,0,*73
1498726990.9,33270,18.63,72894.5,5.81,4.89,4.89,0,*74
1498726992.13,33271,18.63,72888.0,5.81,5.01,5.07,0,*73
1498726993.36,33272,18.63,72938.8,5.81,5.01,5.07,0,*70
1498726994.61,33273,18.63,72956.0,5.81,4.75,4.75,0,*77
1498726995.84,33274,18.63,72892.5,5.81,2.81,2.65,0,*7A
1498726997.08,33275,18.63,72884.3,5.81,2.73,2.73,0,*71
1498726998.3,33276,18.63,72914.0,5.77,2.39,2.27,0,*74
1498726999.54,33277,18.63,72922.5,5.77,2.89,2.85,0,*76
1498727000.76,33278,18.63,72922.5,5.73,3.19,3.25,0,*7E
1498727002.0,33279,18.63,72916.8,5.73,3.19,3.15,0,*7C
1498727003.22,33280,18.63,72912.5,5.71,3.37,3.45,0,*71
1498727004.42,33281,18.63,72902.5,5.71,3.97,4.15,0,*78
1498727005.62,33282,18.63,72918.5,5.69,4.07,4.07,0,*7F
1498727006.81,33283,18.63,72922.0,5.69,2.91,2.91,0,*7E
1498727008.04,33284,18.63,72920.8,5.67,3.07,3.07,0,*77
1498727009.29,33285,18.63,72908.0,5.69,3.33,3.33,0,*78
1498727010.49,33286,18.63,72886.0,5.67,3.93,4.05,0,*7D
1498727011.69,33287,18.63,72896.0,5.67,3.93,4.01,0,*78
1498727012.86,33288,18.63,72892.8,5.67,3.93,3.93,0,*7B
1498727014.09,33289,18.63,72886.3,5.67,4.05,4.01,0,*7E
1498727015.26,33290,18.63,72888.3,5.67,4.27,4.27,0,*72
1498727016.43,33291,18.63,72876.5,5.67,4.41,4.49,0,*7B
1498727017.63,33292,18.63,72872.3,5.67,4.53,4.59,0,*7A
1498727018.85,33293,18.63,72884.0,5.71,4.79,4.79,0,*76
1498727020.04,33294,18.63,72872.5,5.69,4.19,4.19,0,*78
1498727021.23,33295,18.63,72862.0,5.69,4.19,4.23,0,*70
1498727022.46,33296,18.63,72870.5,5.69,4.31,4.33,0,*78
1498727023.68,33297,18.63,72872.3,5.71,4.63,4.63,0,*72
1498727024.88,33298,18.63,72868.5,5.69,4.57,4.57,0,*74
1498727026.13,33299,18.63,72882.5,5.69,4.67,4.75,0,*76
1498727027.38,33300,18.63,72870.3,5.69,4.05,3.97,0,*78
1498727028.57,33301,18.63,72846.5,5.69,3.81,3.81,0,*75
1498727029.82,33302,18.63,72854.0,5.69,4.05,4.05,0,*76
1498727031.02,33303,18.63,72860.0,5.69,4.07,4.15,0,*74
1498727032.27,33304,18.63,72844.5,5.69,3.71,3.71,0,*70
1498727033.47,33305,18.63,72868.3,5.69,3.81,3.81,0,*71
1498727034.67,33306,18.63,72884.5,5.67,4.01,3.93,0,*70
1498727035.87,33307,18.63,72898.8,5.67,4.05,3.93,0,*75
1498727037.1,33308,18.63,72914.5,5.67,3.41,3.41,0,*72
1498727038.28,33309,18.63,72878.8,5.63,2.91,2.95,0,*73
1498727039.5,33310,18.63,72872.0,5.63,3.07,3.07,0,*7F
1498727040.68,33311,18.63,72900.3,5.63,3.25,3.25,0,*7E
1498727041.93,33312,18.63,72880.8,5.61,3.45,3.41,0,*7B
1498727043.13,33313,18.63,72874.0,5.61,4.11,4.23,0,*7F
1498727044.32,33314,18.63,72858.0,5.61,4.11,4.11,0,*79
1498727045.55,33315,18.63,72876.3,5.61,3.75,3.63,0,*7F
1498727046.79,33316,18.63,72860.0,5.61,3.45,3.53,0,*7C
1498727047.99,33317,18.63,72874.8,5.61,3.25,3.29,0,*76
1498727049.25,33318,18.63,72878.3,5.57,3.41,3.41,0,*70
1498727050.42,33319,18.63,72898.5,5.59,3.63,3.63,0,*7F
1498727051.59,33320,18.63,72900.3,5.59,3.81,3.85,0,*71
1498727052.8,33321,18.63,72900.0,5.59,4.31,4.33,0,*76
1498727053.99,33322,18.63,72906.0,5.61,4.27,4.27,0,*7C
1498727055.17,33323,18.63,72902.3,5.59,4.11,4.11,0,*76
1498727056.34,33324,18.63,72914.3,5.59,4.19,4.23,0,*78
1498727057.52,33325,18.63,72902.0,5.59,4.33,4.33,0,*70
1498727058.7,33326,18.63,72914.8,5.59,4.23,4.23,0,*73
1498727059.93,33327,18.63,72902.3,5.59,4.67,4.67,0,*72
1498727061.13,33328,18.63,72896.5,5.61,4.33,4.33,0,*76
1498727062.33,33329,18.63,72918.8,5.61,4.37,4.37,0,*77
1498727063.53,33330,18.63,72880.5,5.61,4.23,4.23,0,*7F
1498727064.71,33331,18.63,72892.3,5.63,4.11,4.07,0,*7B
1498727065.91,33332,18.63,72906.8,5.61,3.89,3.89,0,*7D
1498727067.08,33333,18.63,72926.8,5.63,3.63,3.63,0,*7E
1498727068.32,33334,18.63,72904.8,5.61,3.53,3.53,0,*7B
1498727069.57,33335,18.63,72892.8,5.61,3.15,3.07,0,*79
1498727070.81,33336,18.63,72894.8,5.57,3.33,3.37,0,*78
1498727072.06,33337,18.63,72860.5,5.57,3.53,3.53,0,*7D
1498727073.25,33338,18.63,72870.5,5.57,3.59,3.63,0,*7B
1498727074.45,33339,18.63,72888.0,5.57,3.81,3.81,0,*73
1498727075.65,33340,18.63,72896.8,5.57,4.11,4.11,0,*7D
1498727076.85,33341,18.63,72902.3,5.57,4.41,4.33,0,*79
1498727078.03,33342,18.63,72910.3,5.59,4.53,4.45,0,*76
1498727079.21,33343,18.63,72896.0,5.59,4.53,4.53,0,*70
1498727080.39,33344,18.63,72904.5,5.59,4.33,4.33,0,*77
1498727081.57,33345,18.63,72900.8,5.59,4.11,4.11,0,*76
1498727082.76,33346,18.63,72892.8,5.61,4.57,4.49,0,*71
1498727083.98,33347,18.63,72898.8,5.61,4.57,4.67,0,*7C
1498727085.23,33348,18.63,72900.0,5.61,4.67,4.67,0,*70
1498727086.42,33349,18.63,72898.3,5.61,4.23,4.23,0,*71
1498727087.64,33350,18.63,72902.8,5.61,4.57,4.59,0,*77
1498727088.89,33351,18.63,72892.5,5.61,4.67,4.59,0,*75
1498727090.06,33352,18.63,72888.3,5.63,4.49,4.57,0,*76
1498727091.25,33353,18.63,72894.8,5.67,4.75,4.81,0,*77
1498727092.42,33354,18.63,72896.8,5.63,4.81,4.89,0,*77
1498727093.65,33355,18.63,72892.3,5.63,4.93,4.97,0,*7A
1498727094.85,33356,18.63,72900.8,5.67,4.85,4.93,0,*7E
1498727096.08,33357,18.63,72908.3,5.67,4.97,4.97,0,*78
1498727097.31,33358,18.63,72910.3,5.69,5.05,5.11,0,*7C
1498727098.51,33359,18.63,72906.8,5.69,5.11,5.15,0,*7C
1498727099.71,33360,18.63,72908.8,5.69,5.15,5.11,0,*76
1498727100.96,33361,18.63,72912.0,5.69,4.97,4.97,0,*73
1498727102.19,33362,18.63,72910.0,5.69,5.05,5.11,0,*75
1498727103.41,33363,18.63,72908.8,5.71,5.05,5.05,0,*78
1498727104.6,33364,18.63,72908.0,5.73,5.29,5.29,0,*7D
1498727105.82,33365,18.63,72910.5,5.73,5.51,5.59,0,*74
1498727107.01,33366,18.63,72908.5,5.75,5.51,5.59,0,*71
1498727108.2,33367,18.63,72906.8,5.77,5.45,5.49,0,*76
1498727109.37,33368,18.63,72906.8,5.75,5.41,5.41,0,*77
1498727110.55,33369,18.63,72902.0,5.79,5.33,5.33,0,*7A
1498727111.71,33370,18.63,72898.5,5.79,5.37,5.49,0,*7B
1498727112.91,33371,18.63,72888.3,5.79,5.55,5.59,0,*7F
1498727114.08,33372,18.63,72886.5,5.79,5.33,5.37,0,*74
1498727115.32,33373,18.63,72880.8,5.81,5.55,5.55,0,*76
1498727116.52,33374,18.63,72872.8,5.81,5.49,5.59,0,*70
1498727117.73,33375,18.63,72884.5,5.85,5.27,5.29,0,*7A
1498727118.91,33376,18.63,72880.0,5.85,5.29,5.37,0,*78
1498727120.11,33377,18.63,72876.0,5.85,5.11,5.11,0,*76
1498727121.34,33378,18.63,72878.3,5.85,4.89,4.93,0,*72
1498727122.57,33379,18.63,72898.5,5.85,5.01,5.11,0,*79
1498727123.77,33380,18.63,72902.3,5.85,5.11,5.15,0,*7A
1498727125.0,33381,18.63,72892.3,5.83,4.71,4.79,0,*71
1498727126.23,33382,18.63,72890.0,5.85,5.05,5.15,0,*7D
1498727127.45,33383,18.63,72902.3,5.85,4.89,5.05,0,*78
1498727128.65,33384,18.63,72898.5,5.85,5.11,5.11,0,*7A
1498727129.86,33385,18.63,72904.0,5.89,5.07,5.07,0,*77
1498727131.08,33386,18.63,72906.8,5.89,5.19,5.23,0,*7D
1498727132.28,33387,18.63,72904.0,5.91,5.27,5.37,0,*7D
1498727133.48,33388,18.63,72900.0,5.89,5.29,5.33,0,*71
1498727134.71,33389,18.63,72900.8,5.93,5.49,5.55,0,*7D
1498727135.93,33390,18.63,72900.5,5.93,5.23,5.23,0,*78
1498727137.14,33391,18.63,72904.3,5.95,5.23,5.27,0,*7B
1498727138.37,33392,18.63,72900.8,5.93,5.27,5.37,0,*7B
1498727139.56,33393,18.63,72902.8,5.95,5.59,5.59,0,*7D
1498727140.76,33394,18.63,72902.0,5.95,5.49,5.51,0,*73
1498727141.94,33395,18.63,72896.8,5.95,5.37,5.41,0,*7A
1498727143.14,33396,18.63,72902.5,5.95,5.23,5.23,0,*78
1498727144.34,33397,18.56,72892.5,5.95,5.27,5.37,0,*78
1498727145.54,33398,18.63,72900.0,5.97,5.37,5.29,0,*7B
1498727146.74,33399,18.56,72898.0,5.97,5.37,5.49,0,*7C
1498727147.99,33400,18.63,72894.3,5.99,4.93,4.97,0,*78
1498727149.19,33401,18.63,72900.3,5.97,5.29,5.29,0,*73
1498727150.4,33402,18.63,72898.5,5.99,4.93,4.85,0,*79
1498727151.64,33403,18.63,72900.5,5.97,4.89,4.93,0,*7A
1498727152.88,33404,18.63,72898.3,5.99,4.97,4.93,0,*7C
1498727154.12,33405,18.63,72902.3,5.99,4.63,4.71,0,*7A
1498727155.35,33406,18.56,72900.0,5.99,4.59,4.59,0,*7A
1498727156.59,33407,18.63,72904.0,5.99,4.59,4.63,0,*72
1498727157.83,33408,18.63,72898.0,5.99,4.75,4.75,0,*74
1498727159.05,33409,18.56,72886.0,5.99,4.75,4.85,0,*7A
1498727160.23,33410,18.63,72894.3,5.99,4.85,4.85,0,*7D
1498727161.47,33411,18.63,72894.5,6.01,4.89,5.01,0,*7F
1498727162.69,33412,18.56,72888.5,6.01,5.19,5.19,0,*7D
1498727163.91,33413,18.63,72892.8,6.01,5.19,5.23,0,*75
1498727165.09,33414,18.63,72890.8,6.03,5.29,5.33,0,*72
1498727166.31,33415,18.56,72890.0,6.01,5.19,5.23,0,*73
1498727167.49,33416,18.56,72894.8,6.03,5.29,5.37,0,*74
1498727168.67,33417,18.63,72900.0,6.03,5.37,5.45,0,*7F
1498727169.85,33418,18.63,72898.5,6.03,5.29,5.33,0,*7E
1498727171.07,33419,18.56,72908.5,6.03,4.97,5.07,0,*7C
1498727172.29,33420,18.63,72910.0,6.03,5.01,5.11,0,*7F
1498727173.5,33421,18.63,72918.5,6.03,5.01,5.07,0,*79
1498727174.7,33422,18.56,72910.3,6.03,5.11,5.23,0,*7D
1498727175.93,33423,18.63,72896.5,6.05,4.57,4.59,0,*75
1498727177.17,33424,18.56,72888.0,6.05,5.05,5.15,0,*7D
1498727178.37,33425,18.63,72878.3,6.05,5.33,5.37,0,*79
1498727179.6,33426,18.63,72880.8,6.05,5.27,5.33,0,*7B
1498727180.78,33427,18.63,72878.8,6.07,5.29,5.29,0,*7D
1498727181.98,33428,18.56,72884.8,6.05,5.37,5.37,0,*70
1498727183.18,33429,18.56,72888.8,6.07,5.27,5.37,0,*72
1498727184.45,33430,18.63,72878.8,6.05,4.93,4.93,0,*79
1498727185.66,33431,18.56,72856.8,6.05,4.57,4.57,0,*78
1498727186.86,33432,18.56,72856.5,6.05,4.45,4.53,0,*7C
1498727188.1,33433,18.56,72846.8,6.05,3.75,3.85,0,*75
1498727189.31,33434,18.56,72862.8,6.05,4.41,4.53,0,*7E
1498727190.57,33435,18.56,72862.0,6.05,4.59,4.67,0,*71
1498727191.79,33436,18.63,72872.5,6.03,4.31,4.07,0,*7C
1498727193.0,33437,18.56,72876.0,6.03,4.05,4.07,0,*7A
1498727194.24,33438,18.56,72884.8,6.03,4.75,4.79,0,*7B
1498727195.43,33439,18.56,72894.5,6.03,4.89,4.85,0,*7A
1498727196.64,33440,18.63,72906.0,6.03,4.89,4.97,0,*77
1498727197.87,33441,18.56,72912.0,6.05,5.15,5.27,0,*7E
1498727199.13,33442,18.56,72910.5,6.05,4.79,4.79,0,*7C
1498727200.32,33443,18.56,72906.3,6.07,4.27,4.27,0,*7F
1498727201.51,33444,18.63,72902.3,6.03,4.07,4.07,0,*7C
1498727202.69,33445,18.56,72894.8,6.03,4.19,4.19,0,*7D
1498727203.88,33446,18.56,72880.5,6.03,3.93,3.93,0,*7E
1498727205.07,33447,18.56,72912.8,6.03,4.15,4.07,0,*7C
1498727206.28,33448,18.63,72924.3,6.01,4.27,4.37,0,*73
1498727207.47,33449,18.56,72918.0,6.03,4.85,4.85,0,*71
1498727208.65,33450,18.56,72910.8,6.03,4.15,4.15,0,*79
1498727209.86,33451,18.56,72910.5,6.01,4.53,4.53,0,*7A
1498727211.12,33452,18.56,72934.5,6.01,4.67,4.67,0,*79
1498727212.39,33453,18.63,72944.8,6.01,4.67,4.75,0,*7B
1498727213.62,33454,18.56,72928.0,6.01,4.07,4.05,0,*7D
1498727214.89,33455,18.63,72918.5,6.01,3.79,3.71,0,*76
1498727216.14,33456,18.63,72910.5,6.01,3.79,3.79,0,*7D
1498727217.36,33457,18.63,72900.3,6.01,3.81,3.81,0,*7C
1498727218.53,33458,18.56,72892.3,5.99,3.55,3.63,0,*74
1498727219.71,33459,18.56,72894.5,5.99,3.55,3.55,0,*70
1498727220.96,33460,18.56,72908.8,5.97,4.01,4.01,0,*74
1498727222.15,33461,18.56,72916.5,5.99,4.33,4.37,0,*7F
1498727223.36,33462,18.63,72922.3,5.97,4.45,4.41,0,*72
1498727224.59,33463,18.56,72914.0,5.97,4.01,4.07,0,*71
1498727225.78,33464,18.63,72916.5,5.99,4.27,4.33,0,*7B
1498727227.05,33465,18.56,72912.3,5.97,4.71,4.71,0,*71
1498727228.24,33466,18.63,72916.8,5.99,4.33,4.37,0,*78
1498727229.5,33467,18.56,72918.5,5.97,3.97,4.01,0,*7B
1498727230.7,33468,18.56,72918.5,5.97,4.19,4.23,0,*75
1498727231.89,33469,18.56,72922.8,5.99,4.45,4.45,0,*73
1498727233.15,33470,18.63,72910.5,5.97,4.67,4.79,0,*7A
1498727234.33,33471,18.63,72914.8,5.99,4.45,4.45,0,*7A
1498727235.56,33472,18.63,72892.8,5.97,4.07,3.97,0,*79
1498727236.82,33473,18.56,72904.5,5.97,4.01,4.01,0,*76
1498727238.08,33474,18.56,72882.3,5.97,3.75,3.71,0,*75
1498727239.31,33475,18.63,72892.3,5.97,4.31,4.23,0,*73
1498727240.53,33476,18.56,72908.0,5.97,4.33,4.33,0,*73
1498727241.71,33477,18.56,72906.8,5.95,4.19,4.23,0,*79
1498727242.94,33478,18.56,72912.5,5.97,4.23,4.31,0,*7E
1498727244.13,33479,18.56,72912.5,5.95,4.19,4.19,0,*7E
1498727245.36,33480,18.56,72912.8,5.95,4.01,4.01,0,*78
1498727246.54,33481,18.56,72918.0,5.95,4.41,4.45,0,*7D
1498727247.78,33482,18.56,72916.5,5.93,4.27,4.31,0,*7B
1498727248.97,33483,18.56,72920.3,5.95,4.45,4.45,0,*7B
1498727250.18,33484,18.56,72926.5,5.95,4.31,4.33,0,*7E
1498727251.36,33485,18.56,72918.3,5.95,4.57,4.49,0,*72
1498727252.61,33486,18.56,72906.8,5.95,4.93,5.01,0,*74
1498727253.85,33487,18.56,72900.8,5.95,4.79,4.71,0,*77
1498727255.03,33488,18.56,72892.8,5.95,4.19,4.23,0,*79
1498727256.21,33489,18.56,72890.3,5.95,4.19,4.11,0,*79
1498727257.4,33490,18.56,72896.5,5.95,4.45,4.45,0,*79
1498727258.58,33491,18.56,72892.3,5.95,4.41,4.45,0,*7C
1498727259.77,33492,18.56,72894.0,5.95,4.57,4.57,0,*7B
1498727261.01,33493,18.56,72892.3,5.95,4.67,4.79,0,*75
1498727262.22,33494,18.56,72898.3,5.95,4.93,4.89,0,*76
1498727263.48,33495,18.56,72894.8,5.93,4.79,4.79,0,*7A
1498727264.69,33496,18.56,72894.3,5.95,4.93,4.89,0,*74
1498727265.9,33497,18.56,72892.0,5.99,4.85,4.93,0,*75
1498727267.12,33498,18.56,72896.3,5.99,4.97,5.07,0,*75
1498727268.34,33499,18.56,72894.0,5.97,5.23,5.23,0,*72
1498727269.55,33500,18.56,72894.0,5.99,5.19,5.27,0,*70
1498727270.77,33501,18.56,72892.8,5.99,4.97,5.07,0,*74
1498727271.99,33502,18.56,72892.3,5.99,5.05,5.07,0,*7D
1498727273.2,33503,18.56,72892.8,6.01,5.23,5.29,0,*76
1498727274.46,33504,18.56,72892.0,6.01,4.97,5.01,0,*75
1498727275.68,33505,18.56,72890.0,6.03,4.97,5.07,0,*70
1498727276.88,33506,18.56,72890.3,6.03,5.11,5.23,0,*7A
1498727278.06,33507,18.56,72888.5,6.03,5.19,5.29,0,*79
1498727279.24,33508,18.56,72882.5,6.03,5.29,5.29,0,*75
1498727280.43,33509,18.56,72886.5,6.03,5.19,5.19,0,*74
1498727281.64,33510,18.56,72884.8,6.05,5.23,5.33,0,*7B
1498727282.87,33511,18.56,72882.5,6.05,5.15,5.27,0,*7A
1498727284.08,33512,18.56,72876.0,6.05,5.33,5.37,0,*7C
1498727285.28,33513,18.56,72872.8,6.05,5.37,5.49,0,*70
1498727286.49,33514,18.56,72868.3,6.05,5.41,5.49,0,*76
1498727287.67,33515,18.56,72868.5,6.07,5.41,5.45,0,*79
1498727288.88,33516,18.56,72872.5,6.07,5.29,5.27,0,*70
1498727290.09,33517,18.56,72866.0,6.07,4.75,4.81,0,*74
1498727291.3,33518,18.56,72864.3,6.07,4.71,4.81,0,*7F
1498727292.57,33519,18.56,72862.3,6.09,4.97,4.97,0,*7F
1498727293.78,33520,18.56,72870.0,6.13,5.23,5.33,0,*7F
1498727295.02,33521,18.56,72862.0,6.09,5.05,5.15,0,*75
1498727296.23,33522,18.56,72860.5,6.09,5.07,5.15,0,*74
1498727297.43,33523,18.56,72862.5,6.13,5.23,5.29,0,*77
1498727298.64,33524,18.56,72856.0,6.13,5.33,5.41,0,*7F
1498727299.85,33525,18.56,72862.0,6.13,5.11,5.19,0,*73
1498727301.05,33526,18.56,72862.8,6.13,4.85,4.89,0,*74
1498727302.25,33527,18.56,72864.3,6.13,5.07,5.19,0,*76
1498727303.47,33528,18.56,72866.8,6.13,4.89,5.07,0,*71
1498727304.67,33529,18.56,72866.8,6.09,4.81,4.81,0,*7C
1498727305.91,33530,18.56,72866.8,6.09,4.85,4.97,0,*77
1498727307.12,33531,18.56,72868.3,6.13,4.85,4.85,0,*7E
1498727308.35,33532,18.56,72860.5,6.13,4.53,4.59,0,*77
1498727309.55,33533,18.56,72862.3,6.13,4.49,4.41,0,*74
1498727310.77,33534,18.56,72862.0,6.09,3.93,3.89,0,*7B
1498727311.97,33535,18.56,72860.5,6.13,4.49,4.53,0,*71
1498727313.23,33536,18.56,72852.8,6.13,5.01,5.01,0,*79
1498727314.49,33537,18.56,72856.3,6.13,4.63,4.67,0,*7C
1498727315.69,33538,18.56,72856.3,6.13,4.85,4.85,0,*77
1498727316.95,33539,18.56,72850.3,6.13,4.79,4.79,0,*76
1498727318.16,33540,18.56,72856.0,6.09,4.57,4.49,0,*7C
1498727319.37,33541,18.56,72860.3,6.09,4.33,4.45,0,*73
1498727320.63,33542,18.56,72862.8,6.13,4.67,4.75,0,*79
1498727321.84,33543,18.56,72864.8,6.09,4.57,4.57,0,*70
1498727323.08,33544,18.56,72866.8,6.09,4.05,4.11,0,*72
1498727324.26,33545,18.56,72872.5,6.07,4.23,4.23,0,*78
1498727325.45,33546,18.56,72870.3,6.07,4.11,4.11,0,*7B
1498727326.63,33547,18.56,72868.8,6.07,4.49,4.45,0,*76
1498727327.82,33548,18.56,72866.3,6.07,4.45,4.45,0,*75
1498727329.08,33549,18.56,72868.0,6.05,4.31,4.31,0,*76